Dewpoint
56 56 57 57 57 57 57 57 58 58 58 58 58 59 59 60 59 50 35 41 55 72 71 55 59 56 53 52 50 42 38 33 21 23 24 24 30 37 38 46 48 49 50 56 59
56 56 56 56 56 57 57 57 57 57 58 58 58 58 59 60 40 22 52 73 70 72 51 51 50 51 47 46 38 33 33 27 23 24 23 24 25 29 36 50 50 51 56 57 58
56 56 56 56 55 56 56 56 57 57 57 57 58 59 59 58 29 21 74 74 71 70 41 48 47 40 42 40 33 29 28 28 24 24 23 22 28 29 33 46 54 52 55 56 58
55 55 55 54 54 55 56 56 56 56 57 57 58 59 59 42 25 46 73 73 72 52 43 45 44 38 36 35 29 27 28 28 27 24 24 29 27 27 32 37 47 54 55 57 58
55 54 54 54 55 55 56 56 56 56 56 57 58 59 42 22 25 59 74 71 59 54 46 45 41 37 33 31 27 27 26 28 26 25 25 29 30 33 29 38 41 54 54 56 57
54 55 55 55 55 55 55 55 55 55 56 57 58 59 42 21 37 54 53 56 44 45 44 40 39 34 30 27 25 24 24 26 27 27 26 29 26 32 41 40 44 54 54 55 57
54 54 55 55 55 54 54 54 54 55 56 57 59 51 28 18 12 45 48 45 39 38 33 32 35 30 29 26 24 24 22 21 24 25 24 26 24 29 39 41 45 51 53 55 58
54 54 54 54 54 54 54 53 54 55 56 58 60 47 24 16 13 15 42 43 39 37 33 29 22 19 20 21 20 20 21 17 19 23 24 24 23 33 37 40 46 48 51 54 56
53 53 54 54 54 53 53 53 54 55 57 59 49 39 27 34 12 10 31 39 37 35 30 26 20 19 18 15 14 14 12 17 19 19 23 22 22 24 26 39 44 48 51 53 56
53 53 53 53 53 53 52 53 54 53 51 46 40 29 22 16 10 9 18 33 33 30 24 22 20 17 14 13 11 13 11 14 20 19 22 18 19 22 24 29 36 47 51 53 56
52 53 53 53 52 52 47 36 29 36 32 24 21 18 7 12 10 8 7 13 22 21 20 19 17 15 13 15 14 13 13 13 17 20 20 20 21 19 24 27 29 45 53 54 56
52 52 52 52 52 51 47 27 24 21 17 16 18 21 18 15 9 11 14 11 15 16 17 15 15 16 14 13 12 14 16 16 15 14 15 15 17 19 22 27 31 36 51 52 54
52 52 52 52 50 45 25 19 26 17 16 15 11 7 14 12 14 13 13 14 13 15 16 16 14 11 10 11 9 13 13 13 13 15 14 15 17 21 22 26 33 33 47 52 55
52 51 51 51 40 27 22 24 18 17 18 14 11 9 5 9 11 10 11 15 16 17 19 17 14 11 9 10 10 13 10 10 11 13 10 13 11 31 25 25 34 36 36 48 54
51 51 51 50 34 28 22 18 17 20 14 12 9 11 5 4 14 11 8 10 15 16 18 17 15 13 12 11 10 10 8 9 11 13 15 14 11 22 27 29 36 36 38 42 54
51 50 50 33 39 36 24 17 19 17 15 12 9 3 2 4 7 15 11 11 11 13 17 17 16 13 13 12 11 10 6 9 13 13 13 18 12 18 24 30 28 44 43 44 55
50 49 47 39 21 19 20 19 14 15 17 12 9 8 4 6 6 9 13 13 11 16 19 17 15 15 15 14 14 11 7 11 14 12 11 18 12 23 29 29 32 43 46 52 54
49 48 45 38 31 30 25 18 19 16 16 15 10 8 6 3 5 6 11 12 12 11 12 15 13 15 16 15 15 13 12 12 19 12 15 26 17 20 23 20 32 38 53 54 55
47 35 24 31 36 31 23 17 19 20 16 15 16 13 11 5 5 6 7 11 12 14 19 15 13 13 14 15 15 16 17 11 13 14 11 15 25 22 21 21 22 43 50 54 56
38 33 29 25 33 28 20 20 18 18 15 15 17 15 13 10 8 8 10 9 11 12 17 18 20 13 13 15 15 15 14 13 15 22 21 16 24 20 35 31 33 43 47 54 57
39 24 33 31 33 28 18 17 17 15 17 15 17 16 15 13 12 14 18 12 13 7 10 11 21 17 17 19 15 15 14 15 11 17 15 18 19 37 38 35 40 44 48 54 55
29 20 33 31 27 26 21 18 23 14 14 14 16 17 17 15 17 19 18 22 24 23 9 10 9 17 12 15 17 14 17 16 15 26 22 25 20 21 28 29 35 37 52 56 54
29 25 18 26 17 20 22 17 11 11 12 13 15 17 18 17 19 18 17 18 22 22 30 30 17 15 17 14 17 13 13 15 24 30 29 24 20 35 43 43 46 50 54 60 58
27 21 20 30 22 23 23 23 20 15 11 12 15 17 17 18 19 18 15 16 19 19 52 39 27 33 13 20 21 24 12 13 18 26 24 16 41 50 52 53 52 57 60 60 60
32 23 26 34 30 30 29 22 21 22 23 12 19 15 16 19 18 17 15 16 17 39 25 30 37 30 19 13 13 18 19 15 15 18 19 24 46 50 48 50 55 58 62 59 56
32 27 32 31 35 34 33 29 23 24 31 29 28 22 22 22 20 20 18 21 22 26 30 34 36 33 26 21 21 16 17 20 17 12 13 18 44 46 49 52 54 55 58 58 59
31 29 24 30 30 31 31 32 24 28 29 30 31 27 26 21 27 23 16 20 22 33 36 40 37 36 30 33 32 24 20 30 19 21 28 30 48 53 54 56 58 58 57 56 55
Lifted_Index
16 16 16 16 16 16 15 15 15 14 14 14 13 13 12 12 10 9 7 6 5 3 1 -0 -2 -2 -2 -2 -2 -1 -1 -1 -1 -1 -1 -1 -1 -1 -1 -2 -3 -3 -3 -4 -4
17 17 17 16 16 16 15 15 15 14 14 14 13 13 12 12 10 8 6 5 4 3 2 1 -1 -1 -1 -2 -1 -1 -1 -1 -1 -1 -1 -1 -1 -1 -1 -2 -2 -2 -3 -4 -4
17 17 17 17 17 16 16 15 15 14 14 14 13 13 12 11 9 7 5 4 4 4 4 2 1 0 -0 -0 -1 -1 -1 -1 -1 -1 -1 -1 -1 -1 -1 -2 -2 -3 -3 -4 -4
17 17 18 17 17 16 16 15 15 14 14 14 13 13 12 10 8 5 3 3 3 4 4 3 2 1 1 0 -0 -1 -1 -1 -1 -1 -1 -1 -1 -0 -1 -1 -2 -3 -3 -4 -4
17 17 17 17 17 16 16 15 15 14 14 14 13 13 11 9 7 4 3 3 4 4 3 3 2 2 2 1 0 -0 -1 -1 -1 -1 -1 -0 -0 -0 -0 -1 -2 -3 -4 -4 -4
17 17 17 16 16 16 15 15 14 14 13 13 13 12 10 8 6 5 3 4 5 5 4 3 3 3 3 3 2 0 -0 -0 -0 -1 -1 -0 -1 -1 -1 -1 -2 -3 -4 -4 -4
17 16 16 16 15 15 15 14 13 13 13 12 12 11 9 8 7 6 4 5 6 6 5 5 5 4 4 4 3 2 1 0 -0 -1 -1 -1 -0 -1 -1 -1 -2 -3 -4 -4 -4
17 17 17 16 15 15 14 13 13 12 12 11 10 9 8 8 7 7 5 5 5 6 6 6 6 5 5 4 3 3 2 0 -0 -1 -1 -1 -1 -1 -1 -1 -2 -3 -4 -4 -4
18 18 17 17 15 14 14 13 12 11 11 9 8 7 7 6 7 6 6 5 5 5 6 6 6 6 5 4 3 2 1 0 -1 -1 -1 -1 -1 -1 -1 -1 -2 -3 -4 -4 -5
18 18 18 17 16 14 13 12 11 10 9 8 7 6 5 5 5 5 5 5 4 5 6 6 6 6 5 3 2 1 -0 -0 -1 -1 -1 -1 -1 -1 -1 -1 -1 -3 -4 -4 -5
18 18 18 17 16 15 13 11 10 9 8 8 7 6 5 4 4 4 4 4 4 4 4 5 5 5 3 2 0 -0 -1 -0 -0 -0 -1 -1 -1 -1 -1 -1 -1 -3 -4 -4 -5
18 18 17 17 16 14 12 11 9 9 8 8 7 6 5 4 3 3 3 3 3 3 3 3 3 3 2 0 -0 -0 -0 0 0 -0 -0 -1 -1 -1 -1 -1 -1 -2 -3 -4 -5
18 18 17 16 15 13 12 11 10 9 8 7 6 6 5 4 3 3 3 2 2 2 2 1 1 1 0 -0 -0 -0 0 0 0 -0 -1 -1 -1 -1 -1 -0 0 -0 -2 -4 -4
18 18 18 16 14 13 11 10 10 8 6 5 5 4 4 3 3 2 2 2 1 1 1 0 -0 -0 -1 -1 -0 -0 0 -0 -0 -1 -1 -1 -1 -1 -1 -0 0 0 -1 -3 -4
17 17 18 17 14 12 11 10 9 7 4 3 3 2 2 2 2 2 1 1 1 1 0 -0 -0 -1 -1 -1 -1 -0 -0 -0 -0 -0 -0 -1 -1 -1 -1 -1 -1 -1 -1 -2 -3
15 16 17 16 14 12 11 10 7 5 3 2 2 1 0 1 1 1 0 0 0 0 -0 -0 -0 -1 -1 -1 -1 -0 -0 -0 -0 -0 -0 -0 -1 -1 -1 -1 -1 -1 -2 -3 -4
12 14 16 16 14 12 10 8 5 3 3 2 1 0 -0 -0 -0 -0 -0 -0 -0 -0 -0 -0 -0 -1 -1 -1 -1 -1 -0 -0 -0 -0 -0 -1 -1 -1 -1 -1 -1 -1 -2 -3 -4
11 12 14 14 12 10 8 6 4 3 2 2 1 0 -0 -1 -1 -0 -0 -1 -1 -1 -0 -0 -0 -1 -1 -1 -1 -1 -1 -1 -1 -1 -1 -1 -1 -1 -1 -0 -0 -1 -3 -4 -4
11 12 12 12 10 9 7 4 3 3 2 1 0 -0 -0 -1 -1 -1 -1 -1 -1 -1 -1 -1 -1 -1 -1 -1 -1 -0 -0 -1 -1 -1 -1 -1 -1 -1 -1 -0 -0 -1 -3 -4 -4
10 11 11 10 8 7 5 4 3 3 2 1 -0 -0 -0 -0 -0 -0 -1 -1 -1 -1 -1 -1 -1 -1 -1 -1 -1 -1 -1 -1 -1 -1 -1 -1 -1 -1 -0 -0 -0 -1 -2 -4 -4
10 10 9 8 6 5 4 4 3 3 2 1 0 0 0 0 -0 -0 -0 -0 -0 -0 -1 -1 -1 -1 -1 -1 -1 -1 -1 -1 -1 -1 -1 -1 -1 -0 -0 -0 -1 -2 -3 -4 -5
9 9 8 7 5 4 3 3 3 3 1 0 0 1 1 1 0 -0 -0 -0 0 0 -0 -0 -1 -1 -1 -1 -1 -1 -1 -1 -1 -1 -0 -1 -0 -0 -1 -1 -2 -3 -4 -5 -5
8 9 8 6 4 3 2 2 2 2 1 1 1 1 1 1 1 0 0 0 0 0 0 -0 -0 -1 -1 -1 -1 -1 -1 -1 -1 -1 -1 -1 -1 -1 -2 -2 -3 -4 -5 -6 -6
8 8 6 4 3 2 2 1 1 1 1 2 2 1 1 1 1 1 1 0 0 0 0 0 0 -0 -1 -1 -0 -0 -0 -1 -1 -1 -1 -1 -1 -2 -2 -3 -4 -6 -7 -7 -7
8 7 5 3 1 1 1 1 1 1 1 1 1 1 1 1 2 2 1 0 -0 -0 0 0 0 -0 -0 -0 -0 -0 -0 -1 -1 -1 -1 -1 -2 -2 -2 -2 -4 -6 -7 -7 -6
8 7 5 3 1 0 0 1 1 1 0 0 0 1 1 1 1 1 1 1 -0 -0 0 -0 -0 -0 -0 -0 -0 -1 -1 -1 -1 -1 -1 -1 -2 -2 -2 -3 -5 -6 -7 -6 -6
8 8 6 4 2 -0 -1 0 1 1 0 -0 -0 0 0 0 0 1 1 1 0 -0 -0 -1 -1 -1 0 0 -0 -1 -1 -1 -1 -0 -0 -1 -2 -2 -3 -4 -6 -6 -7 -6 -6